Overview Statistics Trail Chart Weather Telemetry Raw packets
 

This is the latest recevied weather packets stored in our database for station/object XE2B-20. If no packets are shown the sender has not sent any weather packets the latest 10 day(s).

<< 1 2 3 4 5 6 7 >>
Time Temp. Humidity Pressure Rain* Wind** Luminosity Snow
1788568453 23.89° C 57% 805.6 hPa - - - -
1788566963 26.67° C 54% 805.4 hPa - - - -
1788565456 28.33° C 53% 805.4 hPa - - - -
1788563959 30.56° C 50% 805.3 hPa - - - -
1788562461 31.67° C 50% 805.5 hPa - - - -
1788560963 32.22° C 49% 805.7 hPa - - - -
1788559471 30.56° C 52% 805.9 hPa - - - -
1788557962 32.22° C 50% 806 hPa - - - -
1788556462 32.22° C 52% 806.3 hPa - - - -
1788554964 33.33° C 50% 806.7 hPa - - - -
1788553465 32.78° C 51% 807 hPa - - - -
1788551967 31.67° C 53% 807.4 hPa - - - -
1788550468 30.56° C 55% 807.9 hPa - - - -
1788548969 31.11° C 54% 808 hPa - - - -
1788547470 30.56° C 55% 808.3 hPa - - - -
1788545973 31.67° C 53% 808.5 hPa - - - -
1788544473 31.11° C 54% 808.8 hPa - - - -
1788542975 31.11° C 51% 809 hPa - - - -
1788541477 28.33° C 55% 809.1 hPa - - - -
1788539979 28.89° C 54% 809.2 hPa - - - -
1788538481 28.33° C 53% 809.3 hPa - - - -
1788536981 26.67° C 54% 809.4 hPa - - - -
1788535484 26.11° C 53% 809.3 hPa - - - -
1788533984 23.33° C 56% 809.3 hPa - - - -
1788532486 21.11° C 57% 809 hPa - - - -

* Rain since midnight (hover to see other rain measurements)
** Current wind speed in m/s (hover to see current wind gust speed)